Weather History for Siemreap, Cambodia

Change the Weather History Date:

Wednesday, September 18, 2013

  Actual Average Record
Temperature  
Mean Temperature 80 °F -  
Max Temperature 82 °F - - ()
Min Temperature 77 °F - - ()
Cooling Degree Days 14    
Growing Degree Days 30 (Base 50)    
Moisture  
Dew Point 77 °F    
Average Humidity 90    
Maximum Humidity 94    
Minimum Humidity 84    
Precipitation  
Precipitation 0.00 in - - ()
Sea Level Pressure  
Sea Level Pressure 29.68 in    
Wind  
Wind Speed 0 mph ()    
Max Wind Speed 2 mph    
Max Gust Speed 15 mph    
Visibility 4.9 miles    
Events Rain    
T = Trace of Precipitation, MM = Missing Value Source: Averaged Metar Reports

Daily Weather History Graph

Daily Weather History Graph

Search for Another Location

Airport:

Trip Planner

Search our weather history database for the weather conditions in past years. The results will help you decide how hot, cold, wet, or windy it might be!

Date:

Astronomy

Sep. 18, 2013 Rise Set
Actual Time 5:53 AM ICT 6:03 PM ICT
Civil Twilight 5:32 AM ICT 6:25 PM ICT
Nautical Twilight 5:07 AM ICT 6:49 PM ICT
Astronomical Twilight 4:42 AM ICT 7:14 PM ICT
Moon 5:04 PM ICT (9/18) 4:28 AM ICT (9/18)
Length of Visible Light 12h 52m
Length of Day
12h 10m
Waxing Gibbous, 98% of the Moon is Illuminated
Sep 18
Waxing Gibbous
Sep 19
Full
Sep 27
Last Quarter
Oct 5
New
Oct 12
First Quarter

Hourly Weather History & Observations

Time (ICT) Temp. Heat Index Dew Point Humidity Pressure Visibility Wind Dir Wind Speed Gust Speed Precip Events Conditions
12:00 AM 80.6 °F 87.1 °F 77.0 °F 89% 29.71 in 5.6 mi Calm Calm - N/A   Scattered Clouds
12:30 AM 80.6 °F 86.2 °F 75.2 °F 84% 29.68 in 5.6 mi Calm Calm - N/A   Scattered Clouds
1:00 AM 80.6 °F 86.2 °F 75.2 °F 84% 29.68 in 5.6 mi Calm Calm - N/A   Scattered Clouds
7:00 AM - - - %  in - Calm Calm - -  
7:00 AM 78.8 °F - 75.2 °F 89% 29.71 in 5.0 mi Calm Calm - N/A Rain Light Rain
7:30 AM 78.8 °F - 75.2 °F 89% 29.71 in 5.0 mi Calm Calm - N/A Rain Light Rain
8:00 AM 78.8 °F - 77.0 °F 94% 29.74 in 5.0 mi Calm Calm - N/A Rain Light Rain
8:30 AM 78.8 °F - 75.2 °F 89% 29.74 in 5.0 mi West 2.3 mph 15.0 mph N/A Rain Light Rain
9:00 AM 77.0 °F - 75.2 °F 94% 29.74 in 5.0 mi Calm Calm - N/A Rain Light Rain
9:30 AM 78.8 °F - 75.2 °F 89% 29.74 in 5.0 mi Calm Calm - N/A Rain Light Rain
10:30 AM 80.6 °F 87.1 °F 77.0 °F 89% 29.74 in 5.6 mi Calm Calm - N/A   Mostly Cloudy
11:00 AM 80.6 °F 87.1 °F 77.0 °F 89% 29.74 in 5.6 mi Calm Calm - N/A Rain Light Rain
11:30 AM 80.6 °F 87.1 °F 77.0 °F 89% 29.74 in 5.6 mi Calm Calm - N/A Rain Light Rain
12:00 PM 80.6 °F 87.1 °F 77.0 °F 89% 29.74 in 5.6 mi Calm Calm - N/A Rain Light Rain
12:05 PM 80.6 °F 87.1 °F 77.0 °F 89% 29.71 in 3.7 mi Calm Calm - N/A Rain Rain
1:00 PM 80.6 °F 87.1 °F 77.0 °F 89% 29.68 in 4.3 mi Calm Calm - N/A Rain Light Rain
1:30 PM 82.4 °F 90.9 °F 77.0 °F 84% 29.65 in 5.6 mi Calm Calm - N/A Rain Light Rain
2:00 PM 82.4 °F 90.9 °F 77.0 °F 84% 29.65 in 5.6 mi Calm Calm - N/A Rain Light Rain
2:30 PM 82.4 °F 90.9 °F 77.0 °F 84% 29.65 in 5.6 mi Calm Calm - N/A Rain Light Rain
3:00 PM 78.8 °F - 77.0 °F 94% 29.62 in 3.7 mi Calm Calm - N/A Rain Light Rain
4:00 PM 78.8 °F - 77.0 °F 94% 29.62 in 4.3 mi Calm Calm - N/A Rain Light Rain
4:30 PM 80.6 °F 87.1 °F 77.0 °F 89% 29.62 in 4.3 mi Calm Calm - N/A Rain Light Rain
5:00 PM 80.6 °F 88.1 °F 78.8 °F 94% 29.62 in 4.3 mi Calm Calm - N/A Rain Light Rain
5:30 PM 80.6 °F 88.1 °F 78.8 °F 94% 29.62 in 4.3 mi Calm Calm - N/A Rain Light Rain
6:00 PM 80.6 °F 88.1 °F 78.8 °F 94% 29.62 in 4.3 mi Calm Calm - N/A Rain Light Rain
6:30 PM 80.6 °F 88.1 °F 78.8 °F 94% 29.62 in 4.3 mi Calm Calm - N/A Rain Light Rain
7:00 PM 80.6 °F 88.1 °F 78.8 °F 94% 29.65 in 4.3 mi Calm Calm - N/A Rain Light Rain
7:30 PM 80.6 °F 88.1 °F 78.8 °F 94% 29.65 in 4.3 mi Calm Calm - N/A Rain Light Rain
8:00 PM 80.6 °F 88.1 °F 78.8 °F 94% 29.65 in 4.3 mi Calm Calm - N/A Rain Light Rain
8:30 PM 78.8 °F - 77.0 °F 94% 29.68 in 4.3 mi Calm Calm - N/A Rain Light Rain
9:00 PM 78.8 °F - 77.0 °F 94% 29.68 in 5.0 mi Calm Calm - N/A Rain Light Rain
9:30 PM 78.8 °F - 75.2 °F 89% 29.68 in 5.0 mi Calm Calm - N/A Rain Light Rain
10:00 PM 78.8 °F - 75.2 °F 89% 29.68 in 5.0 mi Calm Calm - N/A Rain Light Rain
10:30 PM 78.8 °F - 75.2 °F 89% 29.68 in 5.0 mi Calm Calm - N/A Rain Light Rain
11:00 PM 78.8 °F - 77.0 °F 94% 29.68 in 5.0 mi Calm Calm - N/A Rain Light Rain
11:30 PM 78.8 °F - 77.0 °F 94% 29.68 in 5.0 mi Calm Calm - N/A Rain Light Rain